Back to catalog

SL-24 R/B

AlivePO
NORAD 36606·ROCKET BODY·🇷🇺 Russia

Launched Jun 21, 2010 from Baikonur Cosmodrome

Loading…

Next Passes (next 24 hours)

TLE

FreshSource: Space-Track

Epoch: Sep 14, 2026, 05:02 UTC

1 36606U 10030B   26257.21001635  .00000781  00000-0  12745-3 0  9993
2 36606  97.4507 172.5185 0417629 328.6770  29.0131 14.28979297843870

Track SL-24 R/B in real time with AllMySat

Download on the App Store